Preview of NWS' New Version of Forecast
This preview is not operational and should not be used for support decisions.
Latest weather observations around

Selinsgrove Penn Valley Airport (KSEG)

Using English Units (Switch to International System of Units)
Date/ Time (EDT) Wind (mph) Vis. (mi) Weather Sky Cond. Temp (°F) Rel. Humidity Wind Chill (°F) Heat Index (°F) Pressure Precip. (in)
Air Dwpt 6 hour Altimeter (inHg) Sea level (inHg) 1 hr 3 hr 6 hr
Max Min
Sep 23 05:06 Calm 3 Fog/Mist CLR 61 61     100%     29.93        
Sep 23 04:59 Calm 1.25 Fog/Mist CLR 62 61     96%     29.93        
Sep 23 04:53 Calm 0.75 Fog/Mist CLR 61 60     97%     29.93 29.92      
Sep 23 04:49 Calm 1 Fog/Mist CLR 61 61     100%     29.93        
Sep 23 04:46 Calm 2 Fog/Mist CLR 61 60     97%     29.93        
Sep 23 04:29 Calm 4 Fog/Mist CLR 63 61     93%     29.93        
Sep 23 04:17 Calm 2 Fog/Mist CLR 61 60     97%     29.93        
Sep 23 03:58 Calm 1.75 Fog/Mist CLR 61 60     97%     29.93        
Sep 23 03:53 Calm 3 Fog/Mist CLR 61 61     100%     29.93 29.92      
Sep 23 02:53 Calm 6 Fog/Mist CLR 64 63     96%     29.94 29.93      
Sep 23 01:53 Calm 5 Fog/Mist CLR 63 62     97%     29.96 29.95      
Sep 23 00:53 Calm 6 Fog/Mist CLR 64 63     96%     29.97 29.96      
Sep 22 23:53 Calm 7 Clear CLR 66 64     93%     29.99 29.98      
Sep 22 22:53 Calm 10 Clear CLR 72 65     79%   73 30.01 30      
Sep 22 21:53 SSW 5 10 Clear CLR 75 65     71%   76 30.01 30      
Notice The following observation data may not be complete
Sep 22 20:53 Calm 10 Clear     66      %     30.01 30      
Sep 22 19:53 Calm 10 Clear CLR 72 67     84%   73 30.01 30      
Sep 22 18:53 SSE 3 10 Clear CLR 79 65     62%   80 30.01 30      
Sep 22 17:53 S 8 10 Clear CLR 84 64     51%   85 30.02 30.01      
Sep 22 16:53 SSE 7 10 Clear CLR 86 66     51%   88 30.03 30.02      
Sep 22 15:53 SSE 8 10 Clear CLR 86 66     51%   88 30.04 30.03      
Sep 22 14:53 3 10 Clear CLR 86 66     51%   88 30.06 30.05      
Sep 22 13:53 SSE 6 10 Clear CLR 83 67     59%   86 30.09 30.08      
Sep 22 12:53 5 10 Clear CLR 80 65     60%   82 30.12 30.11      
Sep 22 11:53 SE 5 10 Clear CLR 77 63     62%   77 30.15 30.14      
Sep 22 10:53 Calm 10 Clear CLR 72 61     68%   72 30.17 30.16      
Sep 22 09:53 Calm 10 Clear CLR 67 59     76%     30.19 30.19      
Sep 22 08:53 Calm 10 Clear CLR 63 59     87%     30.19 30.19      
Sep 22 07:53 WNW 3 5 Fog/Mist CLR 57 56     96%     30.19 30.19      
Sep 22 06:53 Calm 6 Fog/Mist CLR 55 54     96%     30.18 30.17      
Sep 22 05:53 Calm 5 Fog/Mist CLR 54 54     100%     30.17 30.16      
Sep 22 04:53 Calm 6 Fog/Mist CLR 56 55     97%     30.17 30.16      
Sep 22 03:53 Calm 5 Fog/Mist CLR 56 55     97%     30.17 30.16      
Sep 22 02:53 Calm 7 Clear CLR 56 55     97%     30.17 30.16      
Sep 22 01:53 Calm 6 Fog/Mist CLR 56 55     97%     30.19 30.18      
Sep 22 00:53 Calm 7 Clear CLR 56 55     97%     30.2 30.19      
Sep 21 23:53 Calm 7 Clear CLR 59 58     96%     30.2 30.19      
Sep 21 22:53 Calm 10 Clear CLR 57 57     100%     30.2 30.19      
Sep 21 21:53 Calm 10 Clear CLR 60 59     96%     30.2 30.19      
Sep 21 20:53 Calm 10 Clear CLR 61 59     93%     30.18 30.18      
Notice The following observation data may not be complete
Sep 21 19:53 Calm 10 Clear CLR   61      %     30.17 30.17      
Sep 21 18:53 Calm 10 Clear CLR 72 61     68%   72 30.16 30.16      
Sep 21 17:53 Calm 10 Clear CLR 80 57     45%   80 30.16 30.16      
Sep 21 16:53 Calm 10 Clear CLR 83 56     40%   82 30.17 30.16      
Sep 21 15:53 E 3 10 Clear CLR 82 56     41%   82 30.17 30.16      
Sep 21 14:53 Calm 10 Clear CLR 82 55     40%   81 30.19 30.18      
Sep 21 13:53 SSE 6 10 Clear CLR 80 56     44%   80 30.21 30.2      
Sep 21 12:53 Calm 10 Clear CLR 76 56     50%   76 30.24 30.23      
Sep 21 11:53 Calm 10 Clear CLR 72 58     61%   72 30.25 30.24      
Sep 21 10:53 Calm 10 Clear CLR 66 58     75%     30.27 30.27      
Sep 21 10:14 Calm 6 Fog/Mist SCT002 58 57     97%     30.28        
Sep 21 10:03 Calm 3 Fog/Mist BKN002 57 56     96%     30.29        
Sep 21 09:58 Calm 1.25 Fog/Mist BKN002 56 55     97%     30.29        
Sep 21 09:53 Calm 0.5 Fog VV002 56 55     97%     30.29 30.28      
Sep 21 08:53 Calm 0.25 Fog VV002 53 53     100%     30.28 30.28      
Sep 21 07:53 Calm 0.25 Fog VV001 51 51     100%     30.27 30.27      
Sep 21 06:53 Calm 0.25 Fog VV001 51 51     100%     30.26 30.26      
Sep 21 05:53 NW 3 0.25 Fog VV002 50 50     100%     30.26 30.25      
Sep 21 04:53 Calm 0.25 Fog VV002 50 50     100%     30.24 30.24      
Sep 21 04:47 Calm 0.75 Fog/Mist OVC001 50 48     94%     30.24        
Sep 21 04:45 Calm 1.5 Fog/Mist OVC001 50 49     96%     30.24        
Sep 21 04:01 Calm 5 Fog/Mist BKN003 49 48     97%     30.24        
Sep 21 03:53 Calm 4 Fog/Mist SCT003 48 47     96%     30.24 30.23      
Sep 21 03:29 Calm 3 Fog/Mist CLR 48 47     96%     30.24        
Sep 21 03:16 Calm 1.5 Fog/Mist CLR 47 46     97%     30.24        
Sep 21 02:59 Calm 3 Fog/Mist CLR 49 48     97%     30.24        
Sep 21 02:53 Calm 1.25 Fog/Mist CLR 48 47     96%     30.24 30.23      
Sep 21 02:41 Calm 1.75 Fog/Mist CLR 48 47     96%     30.24        
Sep 21 01:53 Calm 4 Fog/Mist CLR 48 47     96%     30.24 30.24      
Sep 21 01:47 Calm 3 Fog/Mist CLR 48 48     100%     30.24        
Sep 21 01:36 Calm 1.75 Fog/Mist CLR 48 47     96%     30.24        
Sep 21 00:53 Calm 3 Fog/Mist CLR 48 47     96%     30.24 30.24      
Sep 20 23:53 Calm 8 Clear CLR 52 51     97%     30.23 30.23      
Sep 20 22:53 Calm 8 Clear CLR 51 50     96%     30.23 30.22      
Sep 20 21:53 Calm 10 Clear CLR 55 54     96%     30.22 30.22      
Sep 20 20:53 Calm 10 Clear CLR 56 54     93%     30.21 30.22      
Notice The following observation data may not be complete
Sep 20 19:53 Calm 10 Clear     55      %     30.2 30.2      
Notice The following observation data may not be complete
Sep 20 18:53 Calm 10 Clear CLR   57      %     30.19 30.19      
Sep 20 17:53 SSE 6 10 Clear   75 54     48%   74 30.18 30.18      
Sep 20 16:53 SSE 6 10 Clear CLR 76 53     45%   75 30.18 30.18      
Sep 20 15:53 6 10 Clear CLR 76 52     43%   75 30.19 30.19      
Sep 20 14:53 SE 5 10 Clear CLR 76 52     43%   75 30.21 30.2      
Sep 20 13:53 SW 5 10 Clear CLR 74 52     46%   73 30.23 30.23      
Sep 20 12:53 3 10 Clear CLR 70 51     51%     30.25 30.25      
Sep 20 11:53 ESE 3 10 Clear CLR 67 51     57%     30.28 30.28      
Sep 20 10:53 3 10 Clear CLR 61 50     67%     30.3 30.3      
Sep 20 09:53 Calm 10 Mostly Clear FEW002 51 50     96%     30.32 30.32      
Sep 20 09:44 Calm 10 Partly Cloudy SCT002 50 49     96%     30.32        
Sep 20 09:17 Calm 3 Fog/Mist OVC002 49 49     100%     30.33        
Sep 20 09:11 Calm 1.25 Fog/Mist OVC002 48 48     100%     30.33        
Sep 20 08:53 Calm 0.25 Fog VV001 48 48     100%     30.33 30.34      
Sep 20 07:53 Calm 0.25 Fog VV001 46 46     100%     30.31 30.31      
Sep 20 06:53 Calm 0.25 Fog VV001 44 44     100%     30.3 30.3      
Sep 20 06:36 Calm 0.5 Fog VV001 44 44     100%     30.29        
Sep 20 06:28 Calm 1 Fog/Mist OVC001 44 44     100%     30.29        
Sep 20 06:10 Calm 6 Fog/Mist OVC002 43 43     100%     30.29        
Sep 20 06:02 Calm 2 Fog/Mist OVC002 43 42     97%     30.29        
Sep 20 05:53 Calm 1 Fog/Mist OVC002 42 42     100%     30.29 30.29      
Sep 20 05:42 Calm 0.75 Fog/Mist VV001 42 41     96%     30.29        
Sep 20 05:32 Calm 1.25 Fog/Mist OVC001 42 42     100%     30.28        
Sep 20 04:58 Calm 0.75 Fog/Mist VV002 43 42     97%     30.29        
Sep 20 04:53 Calm 1.25 Fog/Mist OVC002 43 42     97%     30.29 30.29      
Sep 20 04:49 Calm 1.75 Fog/Mist OVC002 43 43     100%     30.29        
Sep 20 04:41 Calm 8 Mostly Cloudy BKN002 42 42     100%     30.28        
Sep 20 04:30 Calm 8 Partly Cloudy SCT002 42 41     96%     30.28        
Sep 20 03:53 Calm 9 Clear CLR 41 40     96%     30.29 30.29      
Sep 20 03:41 Calm 9 Mostly Clear FEW002 43 42     97%     30.29        
Sep 20 02:53 Calm 7 Clear CLR 43 42     97%     30.28 30.28      
May 15 14:53 WNW 13 10 Thunderstorms FEW050 BKN070 BKN090 82 67     60%   85 29.79 29.78      
May 15 10:53 SSW 9 10 Clear CLR 77 65     66%   78 29.85 29.84      
May 15 05:13 Calm 10 Clear   61 60     97%     29.91        
May 14 08:04 Calm 4 Fog/Mist OVC002 55 54     96%     30.03        
May 13 16:53 ESE 8 10 Cloudy OVC011 55 52     89%     30.06 30.06      
May 13 14:42 SSE 6 10 Cloudy OVC010 56 52     87%     30.08        
Notice The following observation data may not be complete
May 13 12:17   10 Light Rain OVC014          %         0    
May 13 02:53 NE 6 5 Fog/Mist OVC008 56 54     93%     30.08 30.08      
May 12 04:53 3 2 Heavy Rain and Fog/Mist FEW005 OVC036 48 47     96% 47   30.07 30.06 1 1  
May 12 03:53 3 9 Light Rain BKN041 OVC080 49 46     90% 48   30.15 30.15 0    
May 12 03:32 ENE 6 5 Rain and Fog/Mist SCT026 BKN047 OVC100 49 46     90% 46   30.13   0    
May 12 01:53 Calm 10 Cloudy FEW046 BKN085 OVC110 51 48     89%     30.13 30.13 0   0
May 11 22:53 NE 7 10 Mostly Cloudy SCT065 BKN100 59 37     44%     30.1 30.1      
May 11 20:53 N 6 10 Cloudy BKN070 OVC100 62 41     46%     30.08 30.08      
May 11 15:53 NE 10 10 Mostly Cloudy BKN100 69 43     39%     30.04 30.03      
Jun 10 19:53 SW 3 10 Clear CLR 82 64     55%   84 29.98 29.97      
Jun 10 13:53 7 10 Clear CLR 83 62     49%   84 29.99 29.97      
Jun 08 23:53 Calm 10 Clear   55 52     89%     29.83 29.83      
Jun 08 14:53 5 10 Partly Cloudy FEW060 SCT080 75 51     43%   74 29.92 29.91      
Jun 08 10:53 S 3 10 Clear CLR 66 58     75%     30.02 30.02      
Jun 06 13:53 W 7 10 Clear CLR 73 51     46%   72 29.73 29.72      
Jun 06 01:53 Calm 10 Cloudy FEW020 OVC025 61 60     97%     29.69 29.69     0